www.pogodaiklimat.ru

Погода и климат >> Архив погоды >> Австралия >> Западная Австралия >> Роборн аэропорт


ПОГОДА в Роборн аэропорту

  • Прогноз погоды в Роборн аэропорту
  • Монитор погоды в Роборн аэропорту

АРХИВ ПОГОДЫ в Роборн аэропорту

Время (UTC), дата Ветер
(напр.,м/с)
 
Видим.   Явления Облачность Т
(С)
Тd
(С)
f
(%)
Тe
(С)
Тes
(С)
Комфортность P
(гПа)
Po
(гПа)
Тmin
(С)
Tmax
(С)
R
(мм)
R24
(мм)
S
(см)
13 9.09 З 3 н/о н/о +24.1 +15.9 60 +27 +27 жарко 1017.6 1016.3 +33.4
15 9.09 З 3 н/о н/о +22.0 +16.1 69 +26 +26 душно 1017.6 1016.3
16 9.09 ЮЗ 3 н/о н/о +21.5 +15.8 70 +25 +25 комфорт 1017.5 1016.2
18 9.09 ЮЗ 3 н/о н/о +21.4 +13.8 62 +24 +24 комфорт 1016.1 1014.8
19 9.09 З 4 н/о н/о +21.3 +13.2 60 +24 +24 комфорт 1015.4 1014.1
21 9.09 З 4 н/о н/о +20.2 +12.4 61 +22 +22 комфорт 1015.8 1014.5
22 9.09 З 2 н/о н/о +17.9 +11.9 68 +18 +18 1016.3 1015.0
00 10.09 штиль 0 н/о н/о +24.7 +12.6 47 +27 +27 жарко 1018.3 1017.0
01 10.09 В 3 н/о н/о +28.3 +10.5 33 +29 +29 жарко 1018.8 1017.5 +16.8
03 10.09 В 2 н/о н/о +34.2 +8.8 21 +33 +33 жарко 1018.1 1016.8
04 10.09 С 3 н/о н/о +35.7 +6.9 17 +33 +33 жарко 1017.6 1016.3
06 10.09 С 5 н/о н/о +35.0 +8.7 20 +33 +33 жарко 1016.4 1015.1
07 10.09 С 6 н/о н/о +35.2 +8.9 20 +34 +34 очень
жарко
1016.4 1015.1
09 10.09 С 5 н/о н/о +31.9 +11.1 28 +32 +32 жарко 1017.1 1015.8
10 10.09 С 4 н/о н/о +29.0 +10.6 32 +29 +29 жарко 1017.6 1016.3
12 10.09 З 2 н/о н/о +24.9 +14.7 53 +28 +28 жарко 1019.2 1017.9
13 10.09 ЮЗ 3 н/о н/о +23.4 +13.8 55 +27 +27 душно 1019.9 1018.6 +36.4
15 10.09 ЮЗ 5 н/о н/о +23.6 +14.3 56 +26 +26 жарко 1019.8 1018.5
16 10.09 ЮЗ 4 н/о н/о +22.5 +14.9 62 +26 +26 жарко 1019.3 1018.0
18 10.09 ЮЗ 3 н/о н/о +21.9 +11.9 53 +24 +24 комфорт 1018.4 1017.1
19 10.09 Ю 1 н/о н/о +18.0 +10.6 62 +19 +19 1018.3 1017.0
21 10.09 штиль 0 н/о н/о +16.4 +10.0 66 +16 +16 1018.8 1017.5
22 10.09 штиль 0 н/о н/о +16.0 +10.3 69 +16 +16 1019.1 1017.8
00 11.09 СВ 2 н/о н/о +24.1 +10.7 43 +25 +25 комфорт 1020.9 1019.6
01 11.09 В 6 н/о н/о +30.2 +8.6 26 +30 +30 жарко 1021.2 1019.9 +15.4
03 11.09 СВ 9 н/о н/о +33.8 -2.0 10 +30 +30 жарко 1021.4 1020.1
04 11.09 СВ 10 н/о н/о +32.5 -4.4 9 +29 +29 жарко 1020.9 1019.6
06 11.09 СВ 13 н/о н/о +31.5 +5.1 19 +29 +29 жарко 1019.2 1017.9
07 11.09 СВ 11 н/о н/о +30.9 +6.7 22 +29 +29 жарко 1018.6 1017.3
09 11.09 С 8 н/о н/о +28.3 +9.1 30 +28 +28 жарко 1018.6 1017.3
10 11.09 С 6 н/о н/о +25.7 +11.5 41 +27 +27 жарко 1018.9 1017.6
12 11.09 ЮЗ 3 н/о н/о +20.2 +7.2 43 +22 +22 комфорт 1020.8 1019.5
13 11.09 ЮЗ 3 н/о н/о +20.6 +9.2 48 +23 +23 комфорт 1020.9 1019.6 +34.5
15 11.09 ЮЗ 2 н/о н/о +17.1 +8.0 55 +18 +18 1020.4 1019.1
16 11.09 ЮЗ 3 н/о н/о +15.9 +6.3 53 +16 +16 1020.1 1018.8
18 11.09 ЮЗ 4 н/о н/о +17.7 +5.6 45 +18 +18 1020.0 1018.7
19 11.09 ЮЗ 4 н/о н/о +15.4 +4.5 48 +15 +15 1019.8 1018.5
21 11.09 ЮЗ 4 н/о н/о +16.1 +1.0 36 +15 +15 1020.1 1018.8
22 11.09 ЮЗ 4 н/о н/о +16.4 -0.3 32 +16 +16 1020.3 1019.0
00 12.09 штиль 0 н/о н/о +25.1 -0.9 18 +23 +23 комфорт 1021.6 1020.3
01 12.09 В 4 н/о н/о +30.0 -2.5 12 +27 +27 жарко 1021.8 1020.5 +13.3
03 12.09 В 6 н/о н/о +34.1 -8.5 6 +30 +30 жарко 1021.4 1020.1
04 12.09 СВ 6 н/о н/о +34.4 -13.4 4 +30 +30 жарко 1020.6 1019.3
06 12.09 С 8 н/о н/о +33.8 -11.0 5 +29 +29 жарко 1018.7 1017.4
07 12.09 СВ 7 н/о н/о +32.7 -9.5 6 +28 +28 жарко 1018.5 1017.2
09 12.09 С 7 н/о н/о +30.1 -6.2 9 +26 +26 жарко 1018.4 1017.1
10 12.09 С 4 н/о н/о +27.4 -3.4 13 +25 +25 комфорт 1018.6 1017.3
12 12.09 З 1 н/о н/о +20.2 +4.3 35 +22 +22 комфорт 1019.9 1018.6
13 12.09 штиль 0 н/о н/о +17.1 +1.1 34 +17 +17 1020.1 1018.8 +35.5
15 12.09 Ю 1 н/о н/о +15.8 +3.3 43 +17 +17 1019.8 1018.5
16 12.09 ЮЗ 3 н/о н/о +16.5 +1.8 37 +16 +16 1019.7 1018.4
18 12.09 Ю 3 н/о н/о +13.4 -0.6 38 +13 +13 1019.2 1017.9
19 12.09 ЮЗ 2 н/о н/о +13.8 -1.4 35 +14 +14 1018.8 1017.5
21 12.09 Ю 2 н/о н/о +12.2 -1.3 39 +12 +12 1019.0 1017.7
22 12.09 штиль 0 н/о н/о +10.9 -3.9 35 +11 +11 1019.2 1017.9
00 13.09 Ю 1 н/о н/о +23.5 -6.5 13 +22 +22 комфорт 1020.0 1018.7
01 13.09 ЮВ 3 н/о н/о +29.2 -8.4 8 +25 +25 комфорт 1020.1 1018.8 +9.8
03 13.09 В 7 н/о н/о +33.5 -11.2 5 +29 +29 жарко 1019.5 1018.2
04 13.09 СВ 8 н/о н/о +33.9 -11.0 5 +29 +29 жарко 1019.2 1017.9
06 13.09 С 9 н/о н/о +32.5 -9.7 6 +28 +28 жарко 1017.8 1016.5
07 13.09 С 9 н/о н/о +32.3 -6.1 8 +28 +28 жарко 1017.1 1015.8
09 13.09 С 6 н/о н/о +30.2 -2.3 12 +27 +27 жарко 1017.2 1015.9
10 13.09 С 4 н/о н/о +26.6 +1.1 19 +25 +25 комфорт 1017.7 1016.4
12 13.09 С 1 н/о н/о +19.5 -0.5 26 +21 +21 комфорт 1018.9 1017.6
13 13.09 Ю 3 н/о н/о +19.0 +1.1 30 +20 +20 1019.2 1017.9 +34.8
15 13.09 ЮЗ 2 н/о н/о +16.5 -0.2 32 +17 +17 1018.8 1017.5
16 13.09 ЮЗ 1 н/о н/о +13.9 -2.9 31 +15 +15 1018.5 1017.2
18 13.09 ЮЗ 2 н/о н/о +12.0 -3.0 35 +12 +12 1017.9 1016.6
19 13.09 ЮЗ 2 н/о н/о +11.3 -4.0 34 +11 +11 1017.7 1016.4
21 13.09 ЮЗ 2 н/о н/о +12.2 -4.4 31 +12 +12 1018.0 1016.7
22 13.09 ЮЗ 5 н/о н/о +13.5 -7.2 23 +12 +12 1018.5 1017.2
00 14.09 штиль 0 н/о н/о +23.2 -5.7 14 +21 +21 комфорт 1019.3 1018.0
01 14.09 ЮВ 3 н/о н/о +30.8 -10.9 6 +27 +27 жарко 1019.6 1018.3 +11.1
03 14.09 СВ 3 н/о н/о +33.6 -3.6 9 +30 +30 жарко 1018.4 1017.1
04 14.09 В 4 н/о н/о +35.1 -12.9 4 +30 +30 жарко 1017.7 1016.4
06 14.09 СВ 7 н/о н/о +35.7 -9.7 5 +31 +31 жарко 1016.2 1014.9
07 14.09 СВ 6 н/о н/о +35.1 -10.1 5 +31 +31 жарко 1016.0 1014.7
09 14.09 С 7 н/о н/о +33.1 -7.3 7 +29 +29 жарко 1015.6 1014.3
10 14.09 С 4 н/о н/о +30.1 -4.8 10 +27 +27 жарко 1015.7 1014.4
12 14.09 С 2 н/о н/о +24.5 -0.6 19 +23 +23 комфорт 1017.0 1015.7
13 14.09 ЮЗ 2 н/о н/о +21.1 -4.9 17 +20 +20 1017.5 1016.2 +36.5
15 14.09 З 4 н/о н/о +21.9 +11.3 51 +24 +24 комфорт 1017.1 1015.8
16 14.09 ЮЗ 3 н/о н/о +20.2 +11.7 58 +22 +22 комфорт 1016.9 1015.6
18 14.09 ЮЗ 3 н/о н/о +17.6 +9.8 60 +18 +18 1016.2 1014.9
19 14.09 ЮЗ 2 н/о н/о +15.9 +9.3 65 +16 +16 1015.8 1014.5
21 14.09 ЮЗ 2 н/о н/о +15.0 +5.0 51 +15 +15 1015.8 1014.5
22 14.09 штиль 0 н/о н/о +13.4 +0.4 41 +13 +13 1016.5 1015.2
00 15.09 С 2 н/о н/о +22.7 -0.7 21 +22 +22 комфорт 1017.6 1016.3
01 15.09 СВ 3 н/о н/о +28.2 -1.8 14 +25 +25 комфорт 1017.5 1016.2 +12.3
03 15.09 СВ 3 н/о н/о +33.2 +1.1 13 +30 +30 жарко 1016.6 1015.3
04 15.09 СВ 4 н/о н/о +34.8 +1.2 12 +31 +31 жарко 1016.0 1014.7
06 15.09 С 5 н/о н/о +35.5 -5.5 7 +31 +31 жарко 1014.6 1013.3
07 15.09 СВ 6 н/о н/о +35.4 -5.6 7 +31 +31 жарко 1014.0 1012.7
09 15.09 С 6 н/о н/о +33.6 -2.2 10 +30 +30 жарко 1014.1 1012.8
10 15.09 С 4 н/о н/о +29.7 +2.9 18 +28 +28 жарко 1014.2 1012.9
12 15.09 Ю 1 н/о н/о +22.5 -0.3 22 +22 +22 комфорт 1015.3 1014.0
13 15.09 СЗ 3 н/о н/о +21.5 +4.6 33 +22 +22 комфорт 1015.9 1014.6 +37.0
15 15.09 З 3 н/о н/о +18.4 +5.6 43 +19 +19 1015.8 1014.5
16 15.09 ЮЗ 4 н/о н/о +20.0 +15.0 73 +22 +22 комфорт 1015.6 1014.3
18 15.09 ЮЗ 4 н/о н/о +19.6 +15.5 77 +22 +22 комфорт 1014.8 1013.5
19 15.09 З 3 н/о н/о +19.4 +10.9 58 +21 +21 комфорт 1014.5 1013.2
21 15.09 штиль 0 н/о н/о +13.7 +6.1 60 +13 +13 1014.7 1013.4
22 15.09 штиль 0 н/о н/о +13.3 +5.9 61 +13 +13 1015.0 1013.7
00 16.09 штиль 0 н/о н/о +25.0 +1.8 22 +24 +24 комфорт 1016.4 1015.1
01 16.09 В 1 н/о н/о +29.9 -1.5 13 +27 +27 жарко 1016.5 1015.2 +13.0
03 16.09 С 5 н/о н/о +30.8 +9.1 26 +30 +30 жарко 1016.4 1015.1
04 16.09 С 3 н/о н/о +34.0 +3.7 15 +31 +31 жарко 1015.3 1014.0
06 16.09 СВ 5 н/о н/о +35.5 +2.9 13 +32 +32 жарко 1013.7 1012.4
07 16.09 С 3 н/о н/о +35.6 +0.6 11 +32 +32 жарко 1013.4 1012.1
09 16.09 С 4 н/о н/о +34.1 +1.8 13 +31 +31 жарко 1013.3 1012.0
10 16.09 С 4 н/о н/о +30.4 +8.7 26 +30 +30 жарко 1013.6 1012.3
12 16.09 СЗ 5 н/о н/о +25.6 +16.7 58 +29 +29 душно 1015.2 1013.9

 

Местоположение метеостанции Роборн аэропорт (Западная Австралия, Австралия): широта -20.75 долгота 117.15 высота над уровнем моря 11 м.

В архиве по умолчанию представлена погода в Роборн аэропорту за последнюю неделю. Архивные данные за месяц целиком и за предыдущие месяцы, начиная с января 2011 года, Вы можете получить, выбрав интересующий диапазон дат из раскрывающегося списка и нажав кнопку "Ввод!".


*Определитесь, кто Вы:
робот инопланетянин человек

Внимание! Время в таблицах - всемирное. Для получения местного времени необходимо прибавить поправку, которая равна 8 ч.

Смотрите также архив погоды в соседних городах и на ближайших метеорологических станциях:

Погода в Каррате (Западная Австралия, Австралия) (40 км)
Погода в Марди (Западная Австралия, Австралия) (132 км)
Погода в Порт-Хедленде Apardoo (Западная Австралия, Австралия) (160 км)
Погода на Острове Варанас (Западная Австралия, Австралия) (165 км)
Погода в Барроу-Айленд (Западная Австралия, Австралия) (183 км)
Погода в Онслоу (Западная Австралия, Австралия) (234 км)
Погода на Острове Тевенард (Западная Австралия, Австралия) (234 км)
Погода в Марбл-баре (Западная Австралия, Австралия) (274 км)
Погода в Параберду (Западная Австралия, Австралия) (276 км)
Погода в Лермонте (Западная Австралия, Австралия) (358 км)

Пояснения к столбцам:

Ветер - указаны скорость ветра в м/с - средняя за 10 мин, порывы в срок и между сроками (в фигурных скобках) и направление, откуда дует ветер: С - северный, СВ - северо-восточный, В - восточный, ЮВ - юго-восточный, Ю - южный, ЮЗ - юго-западный, З - западный, СЗ - северо-западный.
Видимость - горизонтальная дальность видимости в метрах или километрах. При видимости от 1 до 10 км при отсутствии осадков обычно наблюдается дымка, при ухудшении видимости до 1 км и менее - туман. В сухую погоду видимость может ухудшаться дымом, пылью или мглою.
Явления - указаны атмосферные явления, наблюдавшиеся в срок или в последний час перед сроком; фигурными скобками обозначены явления, наблюдавшиеся между сроками (за 1-3 часа до срока); квадратными скобками обозначены град или гололедные отложения с указанием их диаметра в мм.
Облачность - указаны через наклонную черту общая и нижняя облачность в баллах и высота нижней границы облаков в метрах; квадратными скобками обозначены формы облаков: Ci - перистые, Cs - перисто-слоистые, Cc - перисто-кучевые, Ac - высококучевые, As - высокослоистые, Sc - слоисто-кучевые, Ns - слоисто-дождевые, Cu - кучевые, Cb - кучево-дождевые. Подробнее классификацию облаков см. в Атласе облаков (PDF).
T - Температура воздуха - температура, измеренная на высоте 2 м над землей.
Td - Температура точки росы - температура, при понижении до которой содержащийся в воздухе водяной пар достигнет насыщения.
f - Относительная влажность воздуха - влажноcть воздуха, измеренная на высоте 2 м над землей.
Te - Эффективная температура - температура, которую ощущает одетый по сезону человек в тени. Характеристика душности погоды. При расчете учитывается влияние влажности воздуха и скорости ветра на теплоощущения человека.
Tes - Эффективная температура на солнце - температура, которую ощущает человек, с поправкой на солнечный нагрев. Характеристика знойности погоды. Зависит от высоты солнца над горизонтом, облачности и скорости ветра. Ночью, в пасмурную погоду, а также при ветре 12 м/с и более поправка равна нулю.
P - Атмосферное давление - приведенное к уровню моря атмосферное давление.
Po - Атмосферное давление - измеренное на уровне метеостанции атмосферное давление.
Tmin - Минимальная температура - минимум температуры воздуха на высоте 2 м над землей.
Tmax - Максимальная температура - максимум температуры воздуха на высоте 2 м над землей.
R - Количество осадков - Количество выпавших осадков за период времени, мм. При наведении курсора мыши на число - период времени, за который выпало указанное количество осадков.
R24 - Количество осадков - Количество выпавших осадков за 24 часа, мм.
S - Снежный покров - Высота снежного покрова, см. При наведении курсора мыши на число - состояние снежного покрова и степень покрытия местности в баллах.